Location: Unspecified
(0.0000°N, 0.0000°E)
Time: 23:56:03
(UTC+00:00)

deb Delta 104 - Pass Details

Date: 08 March 2026
Orbit: 1430 x 1579 km, 102.3° (Epoch: 12 April)

Event Time Altitude Azimuth Distance (km) Brightness Sun altitude
Rises 03:34:41 0° 48° (NE) 4,757 ? -38.9°
Reaches altitude 10° 03:38:34 10° 64° (ENE) 3,773 ? -37.9°
Maximum altitude 03:44:39 21° 108° (ESE) 3,005 ? -36.4°
Drops below altitude 10° 03:50:40 10° 151° (SSE) 3,743 ? -34.9°
Sets 03:54:26 0° 166° (SSE) 4,708 ? -34.0°
